Time,TemperatureF,DewpointF,PressureIn,WindDirection,WindDirectionDegrees,WindSpeedMPH,WindSpeedGustMPH,Humidity,HourlyPrecipIn,Conditions,Clouds,dailyrainin,SolarRadiationWatts/m^2,SoftwareType,DateUTC
2013-07-30 00:03:00,61.0,59.0,-100.00,North,0,1.0,4.0,92,0.00,,,0.00,0.000000,,2013-07-30 04:03:00,
2013-07-30 00:43:00,60.0,59.0,-100.00,North,0,2.0,4.0,95,0.00,,,0.00,0.000000,,2013-07-30 04:43:00,
2013-07-30 00:53:00,60.0,59.0,-100.00,North,0,2.0,4.0,95,0.00,,,0.00,0.000000,,2013-07-30 04:53:00,
2013-07-30 01:03:00,60.0,59.0,-100.00,North,0,2.0,4.0,95,0.00,,,0.00,0.000000,,2013-07-30 05:03:00,
2013-07-30 01:33:00,58.0,57.0,-100.00,North,0,1.0,3.0,96,0.00,,,0.00,0.000000,,2013-07-30 05:33:00,
2013-07-30 01:45:00,58.0,57.0,-100.00,North,0,1.0,3.0,96,0.00,,,0.00,0.000000,,2013-07-30 05:45:00,
2013-07-30 01:53:00,58.0,57.0,-100.00,North,0,1.0,3.0,96,0.00,,,0.00,0.000000,,2013-07-30 05:53:00,
2013-07-30 02:03:00,58.0,57.0,-100.00,North,0,1.0,3.0,96,0.00,,,0.00,0.000000,,2013-07-30 06:03:00,
2013-07-30 02:33:00,57.0,56.0,-100.00,North,1,1.0,3.0,96,0.00,,,0.00,0.000000,,2013-07-30 06:33:00,
2013-07-30 02:43:00,57.0,56.0,-100.00,North,1,1.0,3.0,96,0.00,,,0.00,0.000000,,2013-07-30 06:43:00,
2013-07-30 02:53:00,57.0,56.0,-100.00,North,1,1.0,3.0,96,0.00,,,0.00,0.000000,,2013-07-30 06:53:00,
2013-07-30 03:03:00,57.0,56.0,-100.00,North,1,1.0,3.0,96,0.00,,,0.00,0.000000,,2013-07-30 07:03:00,
2013-07-30 03:33:00,56.0,55.0,-100.00,North,1,1.0,2.0,97,0.00,,,0.00,0.000000,,2013-07-30 07:33:00,
2013-07-30 03:43:00,56.0,55.0,-100.00,North,1,1.0,2.0,97,0.00,,,0.00,0.000000,,2013-07-30 07:43:00,
2013-07-30 03:53:00,56.0,55.0,-100.00,North,1,1.0,2.0,97,0.00,,,0.00,0.000000,,2013-07-30 07:53:00,
2013-07-30 04:03:00,56.0,55.0,-100.00,North,1,1.0,2.0,97,0.00,,,0.00,0.000000,,2013-07-30 08:03:00,
2013-07-30 04:43:00,55.0,54.0,-100.00,North,1,1.0,2.0,97,0.00,,,0.00,0.000000,,2013-07-30 08:43:00,
2013-07-30 04:53:00,55.0,54.0,-100.00,North,1,1.0,2.0,97,0.00,,,0.00,0.000000,,2013-07-30 08:53:00,
2013-07-30 05:03:00,55.0,54.0,-100.00,North,1,1.0,2.0,97,0.00,,,0.00,0.000000,,2013-07-30 09:03:00,
2013-07-30 05:43:00,54.0,53.0,-100.00,North,1,1.0,3.0,97,0.00,,,0.00,0.000000,,2013-07-30 09:43:00,
2013-07-30 05:53:00,54.0,53.0,-100.00,North,1,1.0,3.0,97,0.00,,,0.00,0.000000,,2013-07-30 09:53:00,
2013-07-30 06:03:00,54.0,53.0,-100.00,North,1,1.0,3.0,97,0.00,,,0.00,0.000000,,2013-07-30 10:03:00,
2013-07-30 06:44:00,54.0,53.0,-100.00,North,1,1.0,3.0,97,0.00,,,0.00,0.000000,,2013-07-30 10:44:00,
2013-07-30 06:52:00,54.0,53.0,-100.00,North,1,1.0,3.0,97,0.00,,,0.00,0.000000,,2013-07-30 10:52:00,
2013-07-30 07:02:00,54.0,53.0,-100.00,North,1,1.0,3.0,97,0.00,,,0.00,0.000000,,2013-07-30 11:02:00,
2013-07-30 07:43:00,53.0,52.0,-100.00,North,1,1.0,3.0,97,0.00,,,0.00,4.000000,,2013-07-30 11:43:00,
2013-07-30 07:53:00,53.0,52.0,-100.00,North,1,1.0,3.0,97,0.00,,,0.00,4.000000,,2013-07-30 11:53:00,
2013-07-30 08:42:00,56.0,55.0,-100.00,North,1,1.0,2.0,97,0.00,,,0.00,53.000000,,2013-07-30 12:42:00,
2013-07-30 08:53:00,56.0,55.0,-100.00,North,1,1.0,2.0,97,0.00,,,0.00,53.000000,,2013-07-30 12:53:00,
2013-07-30 09:02:00,56.0,55.0,-100.00,North,1,1.0,2.0,97,0.00,,,0.00,53.000000,,2013-07-30 13:02:00,
2013-07-30 09:43:00,61.0,60.0,-100.00,North,1,2.0,4.0,95,0.00,,,0.00,214.000000,,2013-07-30 13:43:00,
2013-07-30 09:52:00,61.0,60.0,-100.00,North,1,2.0,4.0,95,0.00,,,0.00,214.000000,,2013-07-30 13:52:00,
2013-07-30 10:03:00,61.0,60.0,-100.00,North,1,2.0,4.0,95,0.00,,,0.00,214.000000,,2013-07-30 14:03:00,
2013-07-30 10:43:00,68.0,61.0,-100.00,North,0,2.0,4.0,77,0.00,,,0.00,544.000000,,2013-07-30 14:43:00,
2013-07-30 10:53:00,68.0,61.0,-100.00,North,0,2.0,4.0,77,0.00,,,0.00,544.000000,,2013-07-30 14:53:00,
2013-07-30 11:02:00,68.0,61.0,-100.00,North,0,2.0,4.0,77,0.00,,,0.00,544.000000,,2013-07-30 15:02:00,
2013-07-30 11:43:00,75.0,63.0,-100.00,North,2,2.0,5.0,67,0.00,,,0.00,724.000000,,2013-07-30 15:43:00,
2013-07-30 11:53:00,75.0,63.0,-100.00,North,2,2.0,5.0,67,0.00,,,0.00,724.000000,,2013-07-30 15:53:00,
2013-07-30 12:02:00,75.0,63.0,-100.00,North,2,2.0,5.0,67,0.00,,,0.00,724.000000,,2013-07-30 16:02:00,
2013-07-30 12:44:00,78.0,64.0,-100.00,North,1,3.0,5.0,62,0.00,,,0.00,746.000000,,2013-07-30 16:44:00,
2013-07-30 12:52:00,78.0,64.0,-100.00,North,1,3.0,5.0,62,0.00,,,0.00,746.000000,,2013-07-30 16:52:00,
2013-07-30 13:02:00,78.0,64.0,-100.00,North,1,3.0,5.0,62,0.00,,,0.00,746.000000,,2013-07-30 17:02:00,
2013-07-30 13:43:00,83.0,62.0,-100.00,North,0,3.0,4.0,49,0.00,,,0.00,973.000000,,2013-07-30 17:43:00,
2013-07-30 13:54:00,83.0,62.0,-100.00,North,0,3.0,4.0,49,0.00,,,0.00,973.000000,,2013-07-30 17:54:00,
2013-07-30 14:03:00,83.0,62.0,-100.00,North,0,3.0,4.0,49,0.00,,,0.00,973.000000,,2013-07-30 18:03:00,
2013-07-30 14:43:00,84.0,58.0,-100.00,North,0,3.0,5.0,42,0.00,,,0.00,983.000000,,2013-07-30 18:43:00,
2013-07-30 14:52:00,84.0,58.0,-100.00,North,0,3.0,5.0,42,0.00,,,0.00,983.000000,,2013-07-30 18:52:00,
2013-07-30 15:03:00,84.0,58.0,-100.00,North,0,3.0,5.0,42,0.00,,,0.00,983.000000,,2013-07-30 19:03:00,
2013-07-30 15:44:00,86.0,62.0,-100.00,North,1,3.0,5.0,44,0.00,,,0.00,777.000000,,2013-07-30 19:44:00,
2013-07-30 15:52:00,86.0,62.0,-100.00,North,1,3.0,5.0,44,0.00,,,0.00,777.000000,,2013-07-30 19:52:00,
2013-07-30 16:02:00,86.0,62.0,-100.00,North,1,3.0,5.0,44,0.00,,,0.00,777.000000,,2013-07-30 20:02:00,
2013-07-30 16:43:00,88.0,63.0,-100.00,North,2,3.0,5.0,44,0.00,,,0.00,851.000000,,2013-07-30 20:43:00,
2013-07-30 16:52:00,88.0,63.0,-100.00,North,2,3.0,5.0,44,0.00,,,0.00,851.000000,,2013-07-30 20:52:00,
2013-07-30 17:02:00,88.0,63.0,-100.00,North,2,3.0,5.0,44,0.00,,,0.00,851.000000,,2013-07-30 21:02:00,
2013-07-30 17:32:00,87.0,64.0,-100.00,North,1,3.0,6.0,47,0.00,,,0.00,769.000000,,2013-07-30 21:32:00,
2013-07-30 17:42:00,87.0,64.0,-100.00,North,1,3.0,6.0,47,0.00,,,0.00,769.000000,,2013-07-30 21:42:00,
2013-07-30 17:53:00,87.0,64.0,-100.00,North,1,3.0,6.0,47,0.00,,,0.00,769.000000,,2013-07-30 21:53:00,
2013-07-30 18:02:00,87.0,64.0,-100.00,North,1,3.0,6.0,47,0.00,,,0.00,769.000000,,2013-07-30 22:02:00,
2013-07-30 18:32:00,83.0,69.0,-100.00,North,3,0.0,6.0,62,0.00,,,0.00,388.000000,,2013-07-30 22:32:00,
2013-07-30 18:43:00,83.0,69.0,-100.00,North,3,0.0,6.0,62,0.00,,,0.00,388.000000,,2013-07-30 22:43:00,
2013-07-30 18:53:00,83.0,69.0,-100.00,North,3,0.0,6.0,62,0.00,,,0.00,388.000000,,2013-07-30 22:53:00,
2013-07-30 19:02:00,83.0,69.0,-100.00,North,3,0.0,6.0,62,0.00,,,0.00,388.000000,,2013-07-30 23:02:00,
2013-07-30 19:32:00,77.0,67.0,-100.00,North,2,1.0,4.0,72,0.00,,,0.00,201.000000,,2013-07-30 23:32:00,
2013-07-30 19:42:00,77.0,67.0,-100.00,North,2,1.0,4.0,72,0.00,,,0.00,201.000000,,2013-07-30 23:42:00,
2013-07-30 19:53:00,77.0,67.0,-100.00,North,2,1.0,4.0,72,0.00,,,0.00,201.000000,,2013-07-30 23:53:00,
2013-07-30 20:02:00,77.0,67.0,-100.00,North,2,1.0,4.0,72,0.00,,,0.00,201.000000,,2013-07-31 00:02:00,
2013-07-30 20:32:00,73.0,65.0,-100.00,North,1,0.0,2.0,76,0.00,,,0.00,60.000000,,2013-07-31 00:32:00,
2013-07-30 20:43:00,73.0,65.0,-100.00,North,1,0.0,2.0,76,0.00,,,0.00,60.000000,,2013-07-31 00:43:00,
2013-07-30 20:53:00,73.0,65.0,-100.00,North,1,0.0,2.0,76,0.00,,,0.00,60.000000,,2013-07-31 00:53:00,
2013-07-30 21:02:00,73.0,65.0,-100.00,North,1,0.0,2.0,76,0.00,,,0.00,60.000000,,2013-07-31 01:02:00,
2013-07-30 21:32:00,71.0,66.0,-100.00,North,0,1.0,3.0,84,0.00,,,0.00,9.000000,,2013-07-31 01:32:00,
2013-07-30 21:43:00,71.0,66.0,-100.00,North,0,1.0,3.0,84,0.00,,,0.00,9.000000,,2013-07-31 01:43:00,
2013-07-30 21:52:00,71.0,66.0,-100.00,North,0,1.0,3.0,84,0.00,,,0.00,9.000000,,2013-07-31 01:52:00,
2013-07-30 22:02:00,71.0,66.0,-100.00,North,0,1.0,3.0,84,0.00,,,0.00,9.000000,,2013-07-31 02:02:00,
2013-07-30 22:32:00,69.0,65.0,-100.00,North,0,2.0,3.0,86,0.00,,,0.00,0.000000,,2013-07-31 02:32:00,
2013-07-30 22:43:00,69.0,65.0,-100.00,North,0,2.0,3.0,86,0.00,,,0.00,0.000000,,2013-07-31 02:43:00,
2013-07-30 22:52:00,69.0,65.0,-100.00,North,0,2.0,3.0,86,0.00,,,0.00,0.000000,,2013-07-31 02:52:00,
2013-07-30 23:02:00,69.0,65.0,-100.00,North,0,2.0,3.0,86,0.00,,,0.00,0.000000,,2013-07-31 03:02:00,
2013-07-30 23:42:00,68.0,64.0,-100.00,North,1,1.0,3.0,88,0.00,,,0.00,0.000000,,2013-07-31 03:42:00,
2013-07-30 23:52:00,68.0,64.0,-100.00,North,1,1.0,3.0,88,0.00,,,0.00,0.000000,,2013-07-31 03:52:00,